Time,TemperatureF,DewpointF,PressureIn,WindDirection,WindDirectionDegrees,WindSpeedMPH,WindSpeedGustMPH,Humidity,HourlyPrecipIn,Conditions,Clouds,dailyrainin,SoftwareType,DateUTC
2013-01-14 00:02:00,4.0,2.0,30.27,NW,324,0.0,5.0,93,0.00,,,0.00,,2013-01-14 06:02:00,
2013-01-14 00:12:00,4.0,2.0,30.27,NW,324,0.0,5.0,93,0.00,,,0.00,,2013-01-14 06:12:00,
2013-01-14 00:22:00,5.0,3.0,30.28,WNW,296,0.0,6.0,93,0.00,,,0.00,,2013-01-14 06:22:00,
2013-01-14 00:32:00,5.0,3.0,30.27,NW,310,3.0,9.0,93,0.00,,,0.00,,2013-01-14 06:32:00,
2013-01-14 00:42:00,5.0,3.0,30.27,NW,310,3.0,9.0,93,0.00,,,0.00,,2013-01-14 06:42:00,
2013-01-14 00:53:00,5.0,3.0,30.28,NW,320,0.0,7.0,93,0.00,,,0.00,,2013-01-14 06:53:00,
2013-01-14 01:02:00,5.0,3.0,30.28,NNE,15,0.0,0.0,93,0.00,,,0.00,,2013-01-14 07:02:00,
2013-01-14 01:12:00,5.0,3.0,30.28,NNE,15,0.0,0.0,93,0.00,,,0.00,,2013-01-14 07:12:00,
2013-01-14 01:22:00,5.0,3.0,30.29,NNW,327,0.0,7.0,93,0.00,,,0.00,,2013-01-14 07:22:00,
2013-01-14 01:32:00,5.0,4.0,30.29,WNW,300,6.0,7.0,94,0.00,,,0.00,,2013-01-14 07:32:00,
2013-01-14 01:42:00,5.0,4.0,30.29,WNW,300,6.0,7.0,94,0.00,,,0.00,,2013-01-14 07:42:00,
2013-01-14 01:53:00,5.0,4.0,30.30,NNW,334,6.0,8.0,94,0.00,,,0.00,,2013-01-14 07:53:00,
2013-01-14 02:02:00,5.0,4.0,30.30,NW,305,0.0,6.0,95,0.00,,,0.00,,2013-01-14 08:02:00,
2013-01-14 02:12:00,5.0,4.0,30.30,NW,305,0.0,6.0,95,0.00,,,0.00,,2013-01-14 08:12:00,
2013-01-14 02:22:00,5.0,4.0,30.30,North,358,0.0,0.0,95,0.00,,,0.00,,2013-01-14 08:22:00,
2013-01-14 02:32:00,4.0,3.0,30.31,NW,307,0.0,0.0,95,0.00,,,0.00,,2013-01-14 08:32:00,
2013-01-14 02:42:00,4.0,3.0,30.31,NW,307,0.0,0.0,95,0.00,,,0.00,,2013-01-14 08:42:00,
2013-01-14 02:53:00,5.0,4.0,30.31,WNW,286,0.0,0.0,95,0.00,,,0.00,,2013-01-14 08:53:00,
2013-01-14 03:02:00,5.0,4.0,30.32,WNW,286,0.0,0.0,96,0.00,,,0.00,,2013-01-14 09:02:00,
2013-01-14 03:12:00,5.0,4.0,30.32,WNW,286,0.0,0.0,96,0.00,,,0.00,,2013-01-14 09:12:00,
2013-01-14 03:22:00,5.0,4.0,30.31,West,265,0.0,5.0,95,0.00,,,0.00,,2013-01-14 09:22:00,
2013-01-14 03:33:00,4.0,3.0,30.32,WNW,293,0.0,6.0,95,0.00,,,0.00,,2013-01-14 09:33:00,
2013-01-14 03:42:00,4.0,3.0,30.32,WNW,293,0.0,6.0,95,0.00,,,0.00,,2013-01-14 09:42:00,
2013-01-14 03:53:00,4.0,3.0,30.32,WNW,286,0.0,6.0,96,0.00,,,0.00,,2013-01-14 09:53:00,
2013-01-14 04:02:00,4.0,3.0,30.32,NW,317,0.0,6.0,96,0.00,,,0.00,,2013-01-14 10:02:00,
2013-01-14 04:12:00,4.0,3.0,30.32,NW,317,0.0,6.0,96,0.00,,,0.00,,2013-01-14 10:12:00,
2013-01-14 04:22:00,4.0,3.0,30.32,NW,324,5.0,7.0,96,0.00,,,0.00,,2013-01-14 10:22:00,
2013-01-14 04:32:00,5.0,4.0,30.32,NW,310,4.0,6.0,95,0.00,,,0.00,,2013-01-14 10:32:00,
2013-01-14 04:42:00,5.0,4.0,30.32,NW,310,4.0,6.0,95,0.00,,,0.00,,2013-01-14 10:42:00,
2013-01-14 04:53:00,4.0,3.0,30.33,West,275,3.0,8.0,96,0.00,,,0.00,,2013-01-14 10:53:00,
2013-01-14 05:02:00,4.0,3.0,30.33,NNW,334,6.0,7.0,96,0.00,,,0.00,,2013-01-14 11:02:00,
2013-01-14 05:12:00,4.0,3.0,30.33,NNW,334,6.0,7.0,96,0.00,,,0.00,,2013-01-14 11:12:00,
2013-01-14 05:22:00,4.0,3.0,30.34,NNW,337,7.0,7.0,95,0.00,,,0.00,,2013-01-14 11:22:00,
2013-01-14 05:32:00,5.0,4.0,30.34,WNW,296,0.0,8.0,96,0.00,,,0.00,,2013-01-14 11:32:00,
2013-01-14 05:42:00,5.0,4.0,30.34,WNW,296,0.0,8.0,96,0.00,,,0.00,,2013-01-14 11:42:00,
2013-01-14 05:53:00,4.0,3.0,30.33,WNW,303,0.0,8.0,96,0.00,,,0.00,,2013-01-14 11:53:00,
2013-01-14 06:03:00,4.0,3.0,30.33,WNW,303,0.0,8.0,96,0.00,,,0.00,,2013-01-14 12:03:00,
2013-01-14 06:12:00,4.0,3.0,30.33,WNW,303,0.0,8.0,96,0.00,,,0.00,,2013-01-14 12:12:00,
2013-01-14 06:23:00,5.0,4.0,30.32,NW,323,8.0,8.0,96,0.00,,,0.00,,2013-01-14 12:23:00,
2013-01-14 06:33:00,5.0,4.0,30.33,NW,305,0.0,9.0,95,0.00,,,0.00,,2013-01-14 12:33:00,
2013-01-14 06:43:00,5.0,4.0,30.33,NW,305,0.0,9.0,95,0.00,,,0.00,,2013-01-14 12:43:00,
2013-01-14 06:53:00,5.0,4.0,30.33,NNW,333,5.0,11.0,95,0.00,,,0.00,,2013-01-14 12:53:00,
2013-01-14 07:03:00,5.0,4.0,30.34,NNW,331,7.0,7.0,95,0.00,,,0.00,,2013-01-14 13:03:00,
2013-01-14 07:12:00,5.0,4.0,30.34,NNW,331,7.0,7.0,95,0.00,,,0.00,,2013-01-14 13:12:00,
2013-01-14 07:22:00,6.0,5.0,30.35,WNW,282,0.0,0.0,95,0.00,,,0.00,,2013-01-14 13:22:00,
2013-01-14 07:33:00,6.0,5.0,30.36,NW,312,5.0,9.0,95,0.00,,,0.00,,2013-01-14 13:33:00,
2013-01-14 07:43:00,6.0,5.0,30.36,NW,312,5.0,9.0,95,0.00,,,0.00,,2013-01-14 13:43:00,
2013-01-14 07:52:00,6.0,4.0,30.37,NNE,18,3.0,9.0,93,0.00,,,0.00,,2013-01-14 13:52:00,
2013-01-14 08:03:00,6.0,4.0,30.37,NNW,336,9.0,10.0,91,0.00,,,0.00,,2013-01-14 14:03:00,
2013-01-14 08:12:00,6.0,4.0,30.37,NNW,336,9.0,10.0,91,0.00,,,0.00,,2013-01-14 14:12:00,
2013-01-14 08:22:00,5.0,3.0,30.39,NW,326,5.0,9.0,90,0.00,,,0.00,,2013-01-14 14:22:00,
2013-01-14 08:33:00,6.0,4.0,30.40,NNW,331,3.0,9.0,90,0.00,,,0.00,,2013-01-14 14:33:00,
2013-01-14 08:43:00,6.0,4.0,30.40,NNW,331,3.0,9.0,90,0.00,,,0.00,,2013-01-14 14:43:00,
2013-01-14 08:53:00,6.0,4.0,30.41,North,4,0.0,12.0,90,0.00,,,0.00,,2013-01-14 14:53:00,
2013-01-14 09:03:00,5.0,3.0,30.41,North,358,0.0,11.0,90,0.00,,,0.00,,2013-01-14 15:03:00,
2013-01-14 09:12:00,5.0,3.0,30.41,North,358,0.0,11.0,90,0.00,,,0.00,,2013-01-14 15:12:00,
2013-01-14 09:23:00,6.0,4.0,30.42,NW,313,7.0,11.0,90,0.00,,,0.00,,2013-01-14 15:23:00,
2013-01-14 09:33:00,5.0,3.0,30.42,NW,322,0.0,7.0,90,0.00,,,0.00,,2013-01-14 15:33:00,
2013-01-14 09:43:00,5.0,3.0,30.42,NW,322,0.0,7.0,90,0.00,,,0.00,,2013-01-14 15:43:00,
2013-01-14 09:53:00,5.0,3.0,30.43,NNW,347,6.0,7.0,90,0.00,,,0.00,,2013-01-14 15:53:00,
2013-01-14 10:02:00,6.0,3.0,30.43,NNW,344,0.0,7.0,89,0.00,,,0.00,,2013-01-14 16:02:00,
2013-01-14 10:12:00,6.0,3.0,30.43,NNW,344,0.0,7.0,89,0.00,,,0.00,,2013-01-14 16:12:00,
2013-01-14 10:23:00,6.0,3.0,30.43,NNW,344,0.0,7.0,89,0.00,,,0.00,,2013-01-14 16:23:00,
2013-01-14 10:33:00,7.0,4.0,30.44,NNW,345,3.0,9.0,87,0.00,,,0.00,,2013-01-14 16:33:00,
2013-01-14 10:43:00,7.0,4.0,30.44,NNW,345,3.0,9.0,87,0.00,,,0.00,,2013-01-14 16:43:00,
2013-01-14 10:53:00,7.0,4.0,30.44,WNW,292,0.0,7.0,86,0.00,,,0.00,,2013-01-14 16:53:00,
2013-01-14 11:03:00,7.0,4.0,30.44,NNW,340,0.0,9.0,87,0.00,,,0.00,,2013-01-14 17:03:00,
2013-01-14 11:12:00,7.0,4.0,30.44,NNW,340,0.0,9.0,87,0.00,,,0.00,,2013-01-14 17:12:00,
2013-01-14 11:23:00,8.0,5.0,30.44,WNW,293,0.0,7.0,86,0.00,,,0.00,,2013-01-14 17:23:00,
2013-01-14 11:33:00,8.0,4.0,30.43,NW,324,6.0,13.0,84,0.00,,,0.00,,2013-01-14 17:33:00,
2013-01-14 11:43:00,8.0,4.0,30.43,NW,324,6.0,13.0,84,0.00,,,0.00,,2013-01-14 17:43:00,
2013-01-14 11:53:00,8.0,4.0,30.43,WNW,296,5.0,13.0,84,0.00,,,0.00,,2013-01-14 17:53:00,
2013-01-14 12:03:00,9.0,5.0,30.42,NW,317,0.0,11.0,84,0.00,,,0.00,,2013-01-14 18:03:00,
2013-01-14 12:12:00,10.0,6.0,30.42,NNW,333,3.0,8.0,83,0.00,,,0.00,,2013-01-14 18:12:00,
2013-01-14 12:23:00,10.0,6.0,30.42,NNW,333,3.0,8.0,83,0.00,,,0.00,,2013-01-14 18:23:00,
2013-01-14 12:33:00,10.0,6.0,30.42,NW,324,4.0,9.0,83,0.00,,,0.00,,2013-01-14 18:33:00,
2013-01-14 12:42:00,10.0,6.0,30.42,NW,324,4.0,9.0,83,0.00,,,0.00,,2013-01-14 18:42:00,
2013-01-14 12:53:00,10.0,6.0,30.42,NW,320,0.0,10.0,83,0.00,,,0.00,,2013-01-14 18:53:00,
2013-01-14 13:03:00,10.0,6.0,30.41,NNW,333,7.0,13.0,82,0.00,,,0.00,,2013-01-14 19:03:00,
2013-01-14 13:12:00,10.0,6.0,30.41,NNW,333,7.0,13.0,82,0.00,,,0.00,,2013-01-14 19:12:00,
2013-01-14 13:22:00,10.0,6.0,30.41,NNW,331,9.0,10.0,82,0.00,,,0.00,,2013-01-14 19:22:00,
2013-01-14 13:33:00,11.0,6.0,30.40,NNW,333,7.0,12.0,81,0.00,,,0.00,,2013-01-14 19:33:00,
2013-01-14 13:43:00,11.0,6.0,30.40,NNW,333,7.0,12.0,81,0.00,,,0.00,,2013-01-14 19:43:00,
2013-01-14 13:53:00,11.0,7.0,30.40,NNW,331,4.0,13.0,82,0.00,,,0.00,,2013-01-14 19:53:00,
2013-01-14 14:03:00,11.0,7.0,30.40,NNW,334,4.0,12.0,82,0.00,,,0.00,,2013-01-14 20:03:00,
2013-01-14 14:12:00,11.0,7.0,30.40,NNW,334,4.0,12.0,82,0.00,,,0.00,,2013-01-14 20:12:00,
2013-01-14 14:22:00,12.0,7.0,30.40,NW,323,5.0,7.0,81,0.00,,,0.00,,2013-01-14 20:22:00,
2013-01-14 14:33:00,12.0,7.0,30.41,NNW,341,6.0,10.0,80,0.00,,,0.00,,2013-01-14 20:33:00,
2013-01-14 14:42:00,12.0,7.0,30.41,NNW,341,6.0,10.0,80,0.00,,,0.00,,2013-01-14 20:42:00,
2013-01-14 14:53:00,12.0,7.0,30.41,NNW,330,7.0,9.0,80,0.00,,,0.00,,2013-01-14 20:53:00,
2013-01-14 15:02:00,13.0,8.0,30.41,NW,326,3.0,8.0,80,0.00,,,0.00,,2013-01-14 21:02:00,
2013-01-14 15:12:00,13.0,8.0,30.41,NW,326,3.0,8.0,80,0.00,,,0.00,,2013-01-14 21:12:00,
2013-01-14 15:23:00,13.0,8.0,30.41,WNW,284,0.0,0.0,79,0.00,,,0.00,,2013-01-14 21:23:00,
2013-01-14 15:33:00,13.0,8.0,30.40,NNW,327,0.0,0.0,80,0.00,,,0.00,,2013-01-14 21:33:00,
2013-01-14 15:42:00,13.0,8.0,30.40,NNW,327,0.0,0.0,80,0.00,,,0.00,,2013-01-14 21:42:00,
2013-01-14 15:53:00,12.0,7.0,30.40,North,5,0.0,1.0,80,0.00,,,0.00,,2013-01-14 21:53:00,
2013-01-14 16:02:00,13.0,8.0,30.38,NNW,331,0.0,0.0,80,0.00,,,0.00,,2013-01-14 22:02:00,
2013-01-14 16:12:00,13.0,8.0,30.38,NNW,331,0.0,0.0,80,0.00,,,0.00,,2013-01-14 22:12:00,
2013-01-14 16:23:00,13.0,8.0,30.38,NNW,331,0.0,0.0,79,0.00,,,0.00,,2013-01-14 22:23:00,
2013-01-14 16:32:00,13.0,8.0,30.39,NNW,331,0.0,0.0,79,0.00,,,0.00,,2013-01-14 22:32:00,
2013-01-14 16:43:00,13.0,8.0,30.39,NNW,331,0.0,0.0,79,0.00,,,0.00,,2013-01-14 22:43:00,
2013-01-14 16:53:00,12.0,7.0,30.38,West,272,2.0,5.0,81,0.00,,,0.00,,2013-01-14 22:53:00,
2013-01-14 17:03:00,12.0,7.0,30.37,West,262,0.0,0.0,81,0.00,,,0.00,,2013-01-14 23:03:00,
2013-01-14 17:12:00,12.0,7.0,30.37,West,262,0.0,0.0,81,0.00,,,0.00,,2013-01-14 23:12:00,
2013-01-14 17:23:00,11.0,7.0,30.37,WNW,291,0.0,0.0,82,0.00,,,0.00,,2013-01-14 23:23:00,
2013-01-14 17:33:00,11.0,7.0,30.37,WNW,291,0.0,0.0,84,0.00,,,0.00,,2013-01-14 23:33:00,
2013-01-14 17:42:00,11.0,7.0,30.37,WNW,291,0.0,0.0,84,0.00,,,0.00,,2013-01-14 23:42:00,
2013-01-14 17:53:00,10.0,6.0,30.38,WNW,291,0.0,0.0,85,0.00,,,0.00,,2013-01-14 23:53:00,
2013-01-14 18:02:00,10.0,6.0,30.37,WNW,291,0.0,0.0,85,0.00,,,0.00,,2013-01-15 00:02:00,
2013-01-14 18:12:00,10.0,6.0,30.37,WNW,291,0.0,0.0,85,0.00,,,0.00,,2013-01-15 00:12:00,
2013-01-14 18:22:00,10.0,7.0,30.37,WNW,291,0.0,0.0,86,0.00,,,0.00,,2013-01-15 00:22:00,
2013-01-14 18:32:00,9.0,6.0,30.37,WNW,291,0.0,0.0,86,0.00,,,0.00,,2013-01-15 00:32:00,
2013-01-14 18:43:00,9.0,6.0,30.37,WNW,291,0.0,0.0,86,0.00,,,0.00,,2013-01-15 00:43:00,
2013-01-14 18:52:00,9.0,6.0,30.37,WNW,291,0.0,0.0,87,0.00,,,0.00,,2013-01-15 00:52:00,
2013-01-14 19:02:00,9.0,6.0,30.36,WNW,291,0.0,0.0,88,0.00,,,0.00,,2013-01-15 01:02:00,
2013-01-14 19:12:00,8.0,5.0,30.36,WNW,291,0.0,0.0,88,0.00,,,0.00,,2013-01-15 01:12:00,
2013-01-14 19:22:00,8.0,5.0,30.36,WNW,291,0.0,0.0,88,0.00,,,0.00,,2013-01-15 01:22:00,
2013-01-14 19:32:00,8.0,5.0,30.36,WNW,291,0.0,0.0,89,0.00,,,0.00,,2013-01-15 01:32:00,
2013-01-14 19:43:00,8.0,5.0,30.36,WNW,291,0.0,0.0,89,0.00,,,0.00,,2013-01-15 01:43:00,
2013-01-14 19:52:00,8.0,6.0,30.36,WNW,291,0.0,0.0,90,0.00,,,0.00,,2013-01-15 01:52:00,
2013-01-14 20:02:00,7.0,5.0,30.35,WNW,291,0.0,0.0,91,0.00,,,0.00,,2013-01-15 02:02:00,
2013-01-14 20:12:00,7.0,5.0,30.35,WNW,291,0.0,0.0,91,0.00,,,0.00,,2013-01-15 02:12:00,
2013-01-14 20:22:00,8.0,6.0,30.35,WNW,291,0.0,0.0,92,0.00,,,0.00,,2013-01-15 02:22:00,
2013-01-14 20:32:00,8.0,6.0,30.35,WNW,291,0.0,0.0,92,0.00,,,0.00,,2013-01-15 02:32:00,
2013-01-14 20:42:00,8.0,6.0,30.35,WNW,291,0.0,0.0,92,0.00,,,0.00,,2013-01-15 02:42:00,
2013-01-14 20:53:00,8.0,6.0,30.35,WNW,291,0.0,0.0,92,0.00,,,0.00,,2013-01-15 02:53:00,
2013-01-14 21:02:00,8.0,6.0,30.34,WNW,291,0.0,0.0,93,0.00,,,0.00,,2013-01-15 03:02:00,
2013-01-14 21:12:00,8.0,6.0,30.34,WNW,291,0.0,0.0,93,0.00,,,0.00,,2013-01-15 03:12:00,
2013-01-14 21:22:00,8.0,7.0,30.34,WNW,291,0.0,0.0,95,0.00,,,0.00,,2013-01-15 03:22:00,
2013-01-14 21:33:00,8.0,7.0,30.33,WNW,291,0.0,0.0,95,0.00,,,0.00,,2013-01-15 03:33:00,
2013-01-14 21:42:00,8.0,7.0,30.33,WNW,291,0.0,0.0,95,0.00,,,0.00,,2013-01-15 03:42:00,
2013-01-14 21:52:00,8.0,7.0,30.32,WNW,291,0.0,0.0,94,0.00,,,0.00,,2013-01-15 03:52:00,
2013-01-14 22:02:00,8.0,7.0,30.32,WNW,291,0.0,0.0,95,0.00,,,0.00,,2013-01-15 04:02:00,
2013-01-14 22:12:00,8.0,7.0,30.32,WNW,291,0.0,0.0,95,0.00,,,0.00,,2013-01-15 04:12:00,
2013-01-14 22:22:00,8.0,7.0,30.32,WNW,291,0.0,0.0,94,0.00,,,0.00,,2013-01-15 04:22:00,
2013-01-14 22:32:00,7.0,6.0,30.32,WNW,291,0.0,0.0,95,0.00,,,0.00,,2013-01-15 04:32:00,
2013-01-14 22:42:00,7.0,6.0,30.32,WNW,291,0.0,0.0,95,0.00,,,0.00,,2013-01-15 04:42:00,
2013-01-14 22:52:00,8.0,7.0,30.31,WNW,291,0.0,0.0,95,0.00,,,0.00,,2013-01-15 04:52:00,
2013-01-14 23:03:00,8.0,7.0,30.31,WNW,291,0.0,0.0,95,0.00,,,0.00,,2013-01-15 05:03:00,
2013-01-14 23:12:00,7.0,6.0,30.31,WNW,291,0.0,0.0,95,0.00,,,0.00,,2013-01-15 05:12:00,
2013-01-14 23:22:00,7.0,6.0,30.31,WNW,291,0.0,0.0,95,0.00,,,0.00,,2013-01-15 05:22:00,
2013-01-14 23:33:00,7.0,6.0,30.31,WNW,291,0.0,0.0,96,0.00,,,0.00,,2013-01-15 05:33:00,
2013-01-14 23:42:00,7.0,6.0,30.31,WNW,291,0.0,0.0,96,0.00,,,0.00,,2013-01-15 05:42:00,
2013-01-14 23:52:00,6.0,5.0,30.31,WNW,291,0.0,0.0,96,0.00,,,0.00,,2013-01-15 05:52:00,